Rugby, ND

3:26 AM CST on January 23, 2017 (GMT -0600)
Rugby Municipal

Weather History for KRUG - December, 2012

Change the Weather History Date:

Tuesday, December 11, 2012

  Actual Average Record
Temperature  
Mean Temperature 2 °F -  
Max Temperature 10 °F 22 °F 40 °F (1974)
Min Temperature -5 °F 3 °F -22 °F (2013)
Degree Days  
Heating Degree Days 62    
Moisture  
Dew Point -2 °F    
Average Humidity 82    
Maximum Humidity 92    
Minimum Humidity 72    
Precipitation  
Precipitation 0.04 in - - ()
Sea Level Pressure  
Sea Level Pressure 29.75 in    
Wind  
Wind Speed 10 mph (West)    
Max Wind Speed 25 mph    
Max Gust Speed 31 mph    
Visibility 10 miles    
Events Snow    
Averages and records for this station are not official NWS values.
T = Trace of Precipitation, MM = Missing Value Source: NWS Daily Summary

Daily Weather History Graph

Daily Weather History Graph

Search for Another Location

Airport or City:

Trip Planner

Search our weather history database for the weather conditions in past years. The results will help you decide how hot, cold, wet, or windy it might be!

Date:

Astronomy

Dec. 11, 2012 Rise Set
Actual Time 8:21 AM CST 4:45 PM CST
Civil Twilight 7:45 AM CST 5:21 PM CST
Nautical Twilight 7:05 AM CST 6:01 PM CST
Astronomical Twilight 6:27 AM CST 6:39 PM CST
Moon 6:14 AM CST (12/11) 3:29 PM CST (12/11)
Length of Visible Light 9h 36m
Length of Day
8h 23m
Waning Crescent, 4% of the Moon is Illuminated
Dec 11
Waning Crescent
Dec 13
New
Dec 19
First Quarter
Dec 28
Full
Jan 4
Last Quarter

Hourly Weather History & Observations

Time (CST) Temp. Windchill Dew Point Humidity Pressure Visibility Wind Dir Wind Speed Gust Speed Precip Events Conditions
12:15 AM 6.8 °F -9.3 °F 5.0 °F 92% 29.71 in 10.0 mi NW 12.7 mph - N/A   Overcast
12:35 AM 6.8 °F -10.0 °F 5.0 °F 92% 29.71 in 10.0 mi NW 13.8 mph - N/A   Overcast
12:55 AM 8.6 °F -5.5 °F 5.0 °F 85% 29.71 in 10.0 mi WNW 10.4 mph - N/A   Overcast
1:15 AM 8.6 °F -7.0 °F 5.0 °F 85% 29.71 in 10.0 mi NW 12.7 mph - N/A   Overcast
1:35 AM 8.6 °F -7.0 °F 3.2 °F 79% 29.71 in 10.0 mi WNW 12.7 mph - N/A   Overcast
1:55 AM 6.8 °F -8.6 °F 1.4 °F 79% 29.72 in 10.0 mi WNW 11.5 mph - N/A   Mostly Cloudy
2:15 AM 6.8 °F -7.8 °F 1.4 °F 79% 29.73 in 10.0 mi NW 10.4 mph - N/A   Mostly Cloudy
2:35 AM 6.8 °F -7.8 °F 1.4 °F 79% 29.73 in 10.0 mi WNW 10.4 mph - N/A Snow Light Snow
2:55 AM 6.8 °F -9.3 °F 1.4 °F 79% 29.73 in 10.0 mi NW 12.7 mph - N/A Snow Light Snow
3:15 AM 5.0 °F -10.0 °F 1.4 °F 85% 29.74 in 10.0 mi NW 10.4 mph - N/A   Overcast
3:35 AM 5.0 °F -9.1 °F -0.4 °F 78% 29.74 in 10.0 mi WNW 9.2 mph - N/A   Partly Cloudy
3:55 AM 3.2 °F -13.1 °F -0.4 °F 85% 29.75 in 10.0 mi NW 11.5 mph - N/A   Clear
4:15 AM 1.4 °F -15.3 °F -0.4 °F 92% 29.75 in 10.0 mi NW 11.5 mph - N/A   Partly Cloudy
4:35 AM 1.4 °F -15.3 °F -0.4 °F 92% 29.76 in 10.0 mi NW 11.5 mph - N/A   Partly Cloudy
4:55 AM 1.4 °F -15.3 °F -0.4 °F 92% 29.76 in 10.0 mi NW 11.5 mph - N/A   Mostly Cloudy
5:15 AM -0.4 °F -14.7 °F -2.2 °F 92% 29.76 in 10.0 mi NW 8.1 mph - N/A Snow Light Snow
5:35 AM -0.4 °F -15.7 °F -4.0 °F 85% 29.76 in 10.0 mi NW 9.2 mph - N/A Snow Light Snow
5:55 AM -0.4 °F -16.7 °F -4.0 °F 85% 29.77 in 10.0 mi WNW 10.4 mph - N/A   Mostly Cloudy
6:15 AM -0.4 °F -14.7 °F -4.0 °F 85% 29.78 in 10.0 mi WNW 8.1 mph - N/A   Clear
6:35 AM -2.2 °F -15.6 °F -7.6 °F 78% 29.78 in 10.0 mi West 6.9 mph - N/A   Clear
6:55 AM -2.2 °F -14.2 °F -7.6 °F 78% 29.79 in 10.0 mi WNW 5.8 mph - N/A   Clear
7:15 AM -4.0 °F -19.0 °F -7.6 °F 85% 29.79 in 10.0 mi WNW 8.1 mph - N/A   Clear
7:35 AM -2.2 °F -18.0 °F -7.6 °F 78% 29.80 in 10.0 mi WNW 9.2 mph - N/A   Clear
7:55 AM -4.0 °F -19.0 °F -7.6 °F 85% 29.80 in 10.0 mi NW 8.1 mph - N/A   Clear
8:15 AM -5.8 °F - -9.4 °F 84% 29.80 in 10.0 mi Calm Calm - N/A   Clear
8:35 AM -4.0 °F -12.4 °F -9.4 °F 78% 29.80 in 10.0 mi WNW 3.5 mph - N/A   Clear
8:55 AM -4.0 °F -12.4 °F -9.4 °F 78% 29.81 in 10.0 mi NW 3.5 mph - N/A   Clear
9:15 AM -4.0 °F -16.3 °F -9.4 °F 78% 29.81 in 10.0 mi NNW 5.8 mph - N/A   Clear
9:35 AM -4.0 °F -14.6 °F -9.4 °F 78% 29.81 in 10.0 mi NW 4.6 mph - N/A   Clear
9:55 AM -4.0 °F -17.8 °F -9.4 °F 78% 29.82 in 10.0 mi West 6.9 mph - N/A   Clear
10:15 AM -2.2 °F -16.8 °F -7.6 °F 78% 29.82 in 10.0 mi West 8.1 mph - N/A   Clear
10:35 AM -2.2 °F -16.8 °F -7.6 °F 78% 29.82 in 10.0 mi NW 8.1 mph - N/A   Clear
10:55 AM -2.2 °F -14.2 °F -7.6 °F 78% 29.82 in 10.0 mi West 5.8 mph - N/A   Clear
11:15 AM -0.4 °F -10.4 °F -7.6 °F 72% 29.83 in 10.0 mi West 4.6 mph - N/A   Clear
11:35 AM -0.4 °F -8.3 °F -5.8 °F 78% 29.82 in 10.0 mi WNW 3.5 mph - N/A   Clear
11:55 AM -0.4 °F - -5.8 °F 78% 29.81 in 10.0 mi Calm Calm - N/A   Clear
12:15 PM -0.4 °F - -5.8 °F 78% 29.80 in 10.0 mi Calm Calm - N/A   Clear
12:35 PM 1.4 °F - -4.0 °F 78% 29.80 in 10.0 mi Calm Calm - N/A   Clear
12:55 PM 1.4 °F -6.2 °F -4.0 °F 78% 29.80 in 10.0 mi WSW 3.5 mph - N/A   Clear
1:15 PM 1.4 °F -6.2 °F -4.0 °F 78% 29.80 in 10.0 mi WSW 3.5 mph - N/A   Clear
1:35 PM 3.2 °F -4.2 °F -4.0 °F 72% 29.79 in 10.0 mi SW 3.5 mph - N/A   Clear
1:55 PM 1.4 °F -6.2 °F -4.0 °F 78% 29.78 in 10.0 mi SSW 3.5 mph - N/A   Clear
2:15 PM 3.2 °F -4.2 °F -4.0 °F 72% 29.77 in 10.0 mi SE 3.5 mph - N/A   Clear
2:35 PM 3.2 °F -6.2 °F -4.0 °F 72% 29.77 in 10.0 mi South 4.6 mph - N/A   Clear
2:55 PM 3.2 °F -6.2 °F -4.0 °F 72% 29.77 in 10.0 mi South 4.6 mph - N/A   Clear
3:15 PM 3.2 °F -6.2 °F -4.0 °F 72% 29.77 in 10.0 mi South 4.6 mph - N/A   Clear
3:35 PM 3.2 °F -6.2 °F -2.2 °F 78% 29.77 in 10.0 mi SSE 4.6 mph - N/A   Clear
3:55 PM 1.4 °F -6.2 °F -4.0 °F 78% 29.77 in 10.0 mi SSE 3.5 mph - N/A   Clear
4:15 PM -0.4 °F -13.4 °F -4.0 °F 85% 29.77 in 10.0 mi ESE 6.9 mph - N/A   Clear
4:35 PM -0.4 °F -12.0 °F -4.0 °F 85% 29.77 in 10.0 mi ESE 5.8 mph - N/A   Partly Cloudy
4:55 PM 1.4 °F -9.9 °F -2.2 °F 85% 29.78 in 10.0 mi ESE 5.8 mph - N/A   Mostly Cloudy
5:15 PM 1.4 °F -11.3 °F -2.2 °F 85% 29.78 in 10.0 mi East 6.9 mph - N/A   Mostly Cloudy
5:35 PM 1.4 °F -12.5 °F -2.2 °F 85% 29.77 in 10.0 mi East 8.1 mph - N/A   Mostly Cloudy
5:55 PM 3.2 °F -11.3 °F -2.2 °F 78% 29.77 in 10.0 mi East 9.2 mph - N/A   Mostly Cloudy
6:15 PM 1.4 °F -15.3 °F -0.4 °F 92% 29.76 in 10.0 mi East 11.5 mph - N/A   Clear
6:35 PM 3.2 °F -15.3 °F -0.4 °F 85% 29.74 in 10.0 mi ESE 15.0 mph - N/A   Clear
6:55 PM 3.2 °F -15.3 °F -0.4 °F 85% 29.73 in 10.0 mi ESE 15.0 mph - N/A   Clear
7:15 PM 5.0 °F -13.0 °F -0.4 °F 78% 29.72 in 10.0 mi ESE 15.0 mph - N/A   Clear
7:35 PM 5.0 °F -14.2 °F -0.4 °F 78% 29.72 in 10.0 mi ESE 17.3 mph - N/A   Clear
7:55 PM 5.0 °F -15.2 °F -0.4 °F 78% 29.71 in 10.0 mi ESE 19.6 mph - N/A   Scattered Clouds
8:15 PM 5.0 °F -13.6 °F 1.4 °F 85% 29.71 in 10.0 mi ESE 16.1 mph 23.0 mph N/A   Mostly Cloudy
8:35 PM 6.8 °F -11.3 °F 1.4 °F 79% 29.71 in 9.0 mi ESE 16.1 mph - N/A   Overcast
8:55 PM 6.8 °F -12.4 °F 3.2 °F 85% 29.70 in 8.0 mi ESE 18.4 mph - N/A   Mostly Cloudy
9:15 PM 6.8 °F -12.9 °F 3.2 °F 85% 29.68 in 10.0 mi ESE 19.6 mph 25.3 mph N/A   Overcast
9:35 PM 6.8 °F -12.9 °F 3.2 °F 85% 29.67 in 10.0 mi ESE 19.6 mph 25.3 mph N/A   Overcast
9:55 PM 8.6 °F -10.0 °F 5.0 °F 85% 29.68 in 10.0 mi SE 18.4 mph 25.3 mph N/A   Overcast
10:15 PM 8.6 °F -11.9 °F 5.0 °F 85% 29.66 in 10.0 mi SE 23.0 mph - N/A   Overcast
10:35 PM 8.6 °F -11.4 °F 5.0 °F 85% 29.65 in 8.0 mi ESE 21.9 mph 25.3 mph N/A   Overcast
10:55 PM 8.6 °F -11.4 °F 6.8 °F 92% 29.64 in 3.0 mi ESE 21.9 mph 27.6 mph N/A Snow Light Snow
11:15 PM 10.4 °F -9.9 °F 6.8 °F 85% 29.63 in 1.5 mi ESE 24.2 mph 29.9 mph N/A Snow Light Snow
11:35 PM 10.4 °F -10.3 °F 6.8 °F 85% 29.62 in 1.0 mi SE 25.3 mph 29.9 mph 0.02 in Snow Light Snow
11:55 PM 10.4 °F -8.6 °F 6.8 °F 85% 29.61 in 1.0 mi SE 20.7 mph 31.1 mph 0.04 in Snow Light Snow